Vorticity
22 6 7 15 12 4 9 15 11 11 12 6 20 15 -41 -16 -14 4 14 17 11 18 4 8 -3 -1 6
22 18 12 25 8 6 6 6 10 13 11 15 5 16 14 11 6 5 10 7 10 3 4 -6 16 8 16
37 5 -20 1 24 22 8 6 7 11 10 13 8 8 6 8 10 9 11 10 6 12 21 25 18 5 15
33 23 26 5 -9 12 29 30 32 14 8 10 13 14 12 10 9 9 14 11 12 7 9 11 -0 9 -7
15 45 17 14 12 9 6 -3 1 9 32 32 20 15 16 19 17 8 7 12 14 12 10 -2 5 -1 4
41 22 37 -4 47 15 14 12 -0 14 18 13 9 26 24 21 23 16 12 15 11 14 13 20 13 11 9
2 1 20 3 24 16 10 3 6 7 11 9 8 12 11 14 14 17 14 8 11 8 9 5 5 5 5
-2 -5 17 21 11 1 8 5 6 9 16 12 8 8 13 13 12 10 17 10 -0 1 -2 10 10 10 7
20 18 2 11 16 17 6 7 8 -3 9 6 7 7 -1 2 5 5 3 0 1 4 5 7 10 12 10
2 8 10 23 9 3 7 0 5 13 6 1 2 0 -0 -0 1 4 8 9 9 11 10 12 14 16 17
13 9 6 2 4 4 2 2 2 1 5 3 6 8 11 11 12 15 18 21 21 20 17 15 13 10 9
9 11 11 9 11 11 10 9 9 9 13 17 19 20 19 16 10 6 5 3 3 3 3 3 3 3 3
13 13 13 15 17 22 26 23 16 8 3 2 2 2 2 3 3 4 4 4 4 4 4 3 4 4 4
11 9 6 1 0 2 3 3 3 3 2 2 2 2 3 4 5 5 5 5 5 4 3 4 5 5 5
3 1 1 2 2 2 2 3 3 2 3 4 5 4 4 4 4 5 4 4 5 5 5 5 7 12 17
2 2 1 1 2 3 3 5 7 7 6 5 5 5 6 6 8 9 12 13 17 23 29 38 45 43 39
1 2 2 2 4 5 6 6 5 6 6 5 5 8 13 19 28 36 42 46 42 37 32 30 28 23 25
Height
5603 5609 5609 5612 5617 5621 5626 5629 5633 5637 5639 5640 5641 5642 5641 5637 5639 5640 5642 5642 5641 5643 5641 5642 5642 5642 5643
5591 5597 5596 5599 5604 5607 5612 5616 5619 5622 5625 5627 5628 5631 5630 5630 5629 5628 5627 5627 5627 5626 5627 5628 5630 5627 5626
5578 5582 5585 5587 5592 5597 5599 5603 5606 5609 5611 5613 5615 5616 5617 5617 5617 5616 5616 5614 5614 5615 5615 5613 5612 5612 5612
5566 5570 5574 5578 5583 5586 5588 5590 5592 5595 5597 5599 5601 5602 5603 5604 5604 5603 5602 5601 5602 5602 5601 5600 5599 5599 5599
5559 5561 5565 5569 5573 5576 5578 5580 5582 5584 5584 5586 5587 5588 5589 5590 5590 5590 5589 5589 5588 5588 5587 5586 5585 5585 5584
5556 5558 5559 5562 5564 5567 5569 5570 5573 5574 5574 5575 5575 5576 5577 5577 5577 5577 5576 5575 5574 5573 5573 5572 5571 5570 5568
5554 5554 5555 5556 5558 5559 5560 5561 5563 5564 5565 5565 5565 5565 5565 5565 5564 5563 5562 5562 5561 5560 5558 5557 5555 5553 5552
5550 5551 5550 5550 5551 5553 5553 5554 5554 5554 5554 5554 5554 5554 5554 5553 5552 5551 5550 5549 5547 5545 5543 5541 5538 5536 5534
5545 5545 5545 5545 5545 5546 5546 5546 5546 5546 5545 5545 5545 5544 5543 5542 5540 5538 5536 5534 5532 5529 5527 5523 5520 5519 5516
5542 5541 5540 5540 5540 5540 5540 5539 5539 5538 5537 5536 5535 5533 5531 5529 5527 5524 5521 5518 5515 5512 5508 5505 5501 5499 5496
5538 5537 5536 5535 5535 5534 5533 5532 5531 5529 5527 5525 5522 5520 5518 5514 5511 5507 5504 5500 5497 5494 5491 5487 5483 5480 5477
5532 5531 5530 5529 5528 5526 5525 5523 5520 5518 5515 5512 5509 5506 5502 5499 5495 5491 5487 5483 5480 5476 5473 5469 5464 5459 5455
5527 5525 5523 5522 5520 5518 5515 5513 5510 5507 5504 5500 5496 5492 5488 5484 5480 5475 5471 5465 5460 5456 5452 5449 5444 5437 5433
5522 5520 5518 5515 5513 5510 5507 5503 5500 5495 5491 5486 5482 5477 5472 5466 5461 5455 5448 5444 5439 5432 5428 5426 5420 5412 5404
5517 5514 5511 5508 5504 5500 5495 5490 5485 5480 5474 5469 5462 5457 5451 5444 5438 5430 5424 5418 5411 5405 5400 5398 5392 5382 5373
5510 5506 5502 5497 5492 5486 5480 5475 5468 5461 5455 5448 5441 5435 5428 5422 5411 5405 5396 5389 5384 5377 5370 5366 5365 5351 5342
5499 5494 5488 5482 5476 5469 5462 5455 5448 5440 5432 5424 5416 5409 5402 5396 5387 5374 5370 5364 5359 5353 5347 5342 5338 5331 5325